User: anonymous
Location: Springfield
(37.2150°N, 93.2980°W)
Time: 03:25:04
(UTC-05:00)
Language:

Iridium 62 - Orbit

View from above orbital plane
View from above orbital plane
View from above satellite
View from above satellite

Ground track
Ground track

The orbit data is extracted from the following two-line orbital elements,

1 25285U 98021A   14114.21917924  .00000457  00000-0  15603-3 0  7495
2 25285 086.3969 344.6018 0002145 106.2236 253.9196 14.34220564840191
Epoch (UTC): 24 April 2014 05:15:37
Eccentricity: 0.0002145
inclination: 86.3969°
perigee height: 776 km
apogee height: 779 km
right ascension of ascending node: 344.6018°
argument of perigee: 106.2236°
revolutions per day: 14.34220564
mean anomaly at epoch: 253.9196°
orbit number at epoch: 84019

The dashed part of the orbit path shows where the satellite is in the earth's shadow,  

DLR